CDT,Max TemperatureF,Mean TemperatureF,Min TemperatureF,Max Dew PointF,MeanDew PointF,Min DewpointF,Max Humidity, Mean Humidity, Min Humidity, Max Sea Level PressureIn, Mean Sea Level PressureIn, Min Sea Level PressureIn, Max VisibilityMiles, Mean VisibilityMiles, Min VisibilityMiles, Max Wind SpeedMPH, Mean Wind SpeedMPH, Max Gust SpeedMPH,PrecipitationIn, CloudCover, Events, WindDirDegrees
2013-7-1,81,64,46,55,49,45,93,63,32,30.26,30.22,30.19,10,9,7,13,4,17,0.00,1,,27
2013-7-2,84,67,49,57,51,47,93,60,27,30.21,30.15,30.08,10,10,8,10,3,13,0.00,1,,30
2013-7-3,86,68,50,56,51,46,96,62,27,30.09,30.02,29.90,10,7,0,16,6,23,0.00,2,Fog,171
2013-7-4,90,74,58,56,53,49,75,51,27,29.93,29.86,29.79,10,10,10,20,10,26,T,1,Thunderstorm,163
2013-7-5,91,76,60,62,58,53,73,57,40,29.82,29.78,29.74,10,10,10,20,9,28,0.00,0,,151
2013-7-6,92,80,68,64,62,59,78,57,36,29.80,29.74,29.70,10,10,6,23,10,29,0.06,1,Rain-Thunderstorm,162
2013-7-7,95,79,62,70,66,61,100,70,39,30.00,29.87,29.78,10,7,1,28,6,40,1.64,3,Rain-Thunderstorm,43
2013-7-8,91,80,68,72,70,66,97,72,47,29.97,29.92,29.86,10,8,5,14,5,17,0.01,1,,83
2013-7-9,94,80,66,72,68,64,93,69,44,30.04,29.92,29.84,10,10,9,17,5,22,0.00,0,,9
2013-7-10,84,73,61,65,63,60,93,72,51,30.13,30.07,30.00,10,10,10,15,5,21,0.00,0,,64
2013-7-11,88,77,66,67,65,61,87,67,46,30.05,29.98,29.88,10,10,8,22,11,30,T,1,Rain,155
2013-7-12,95,82,69,70,66,61,78,60,41,29.92,29.85,29.79,10,10,10,23,12,31,0.00,0,,155
2013-7-13,97,84,71,74,69,67,90,64,38,29.87,29.85,29.81,10,10,10,18,7,25,0.00,0,,142
2013-7-14,81,74,66,72,69,66,93,81,69,30.13,30.01,29.86,10,8,2,20,9,26,0.46,5,Rain-Thunderstorm,119
2013-7-15,85,73,60,65,60,56,100,69,37,30.19,30.15,30.09,10,7,2,16,6,23,0.00,0,,158
2013-7-16,84,72,60,64,62,59,97,73,48,30.24,30.19,30.15,10,10,6,20,9,25,0.00,2,,184
2013-7-17,89,76,62,64,63,60,93,68,43,30.28,30.22,30.12,10,10,10,21,10,30,0.00,1,,179
2013-7-18,93,81,68,66,64,62,84,61,38,30.12,30.00,29.87,10,10,10,25,12,31,0.00,0,,193
2013-7-19,93,80,66,67,61,53,84,57,29,29.97,29.93,29.89,10,10,10,15,6,21,0.00,0,,31
2013-7-20,86,74,61,67,60,56,93,65,37,29.99,29.93,29.86,10,10,6,24,10,32,0.11,2,Rain-Thunderstorm,121
2013-7-21,90,75,60,65,59,53,90,62,34,29.97,29.83,29.76,10,10,10,38,5,54,0.07,1,Rain,195
2013-7-22,92,79,66,70,64,57,93,66,38,29.86,29.80,29.75,10,10,7,15,6,21,0.00,0,,350
2013-7-23,81,72,63,65,62,59,93,74,54,30.10,29.99,29.86,10,9,2,26,6,36,0.53,3,Rain-Thunderstorm,45
2013-7-24,85,71,57,64,61,56,100,74,47,30.10,30.05,29.96,10,8,0,47,3,60,0.27,2,Fog-Rain-Thunderstorm,145
2013-7-25,83,73,63,68,65,61,93,72,51,30.05,30.00,29.96,10,9,1,15,4,18,0.19,3,Rain-Thunderstorm,141
2013-7-26,74,65,55,62,54,49,100,71,41,30.20,30.14,30.05,10,10,7,18,7,24,0.00,0,,347
2013-7-27,75,64,53,54,50,43,100,67,33,30.17,30.11,30.02,10,10,10,10,1,13,T,3,,65
2013-7-28,75,62,49,56,51,47,93,70,46,30.08,30.04,30.01,10,10,10,14,6,18,0.00,5,,161
2013-7-29,67,63,59,63,61,55,100,87,73,30.06,30.01,29.98,10,6,1,12,5,16,0.19,8,Rain,137
2013-7-30,79,72,64,65,64,62,93,76,58,30.17,30.09,30.03,10,9,5,16,4,21,0.02,5,,99
2013-7-31,84,73,62,65,63,61,93,72,51,30.18,30.12,30.07,10,10,6,16,4,18,0.04,1,,349